Time,TemperatureF,DewpointF,PressureIn,WindDirection,WindDirectionDegrees,WindSpeedMPH,WindSpeedGustMPH,Humidity,HourlyPrecipIn,Conditions,Clouds,dailyrainin,SoftwareType,DateUTC
2013-03-28 00:03:00,43.3,42.8,29.99,WNW,285,0.0,0.0,98,0.00,,,0.00,meteohub,2013-03-28 07:03:00,
2013-03-28 00:08:00,43.3,42.8,29.99,WNW,285,0.0,1.0,98,0.00,,,0.00,meteohub,2013-03-28 07:08:00,
2013-03-28 00:13:00,43.2,42.4,29.99,WNW,285,0.0,1.0,97,0.00,,,0.00,meteohub,2013-03-28 07:13:00,
2013-03-28 00:19:00,43.0,42.3,29.99,WNW,285,0.0,0.0,97,0.00,,,0.00,meteohub,2013-03-28 07:19:00,
2013-03-28 00:24:00,43.0,42.4,29.99,WNW,285,0.0,0.0,98,0.00,,,0.00,meteohub,2013-03-28 07:24:00,
2013-03-28 00:29:00,43.0,42.4,29.99,WNW,285,0.0,0.0,98,0.00,,,0.00,meteohub,2013-03-28 07:29:00,
2013-03-28 00:34:00,43.0,42.4,29.99,WNW,285,0.0,0.0,98,0.00,,,0.00,meteohub,2013-03-28 07:34:00,
2013-03-28 00:39:00,42.6,42.1,30.00,WNW,285,0.0,0.0,98,0.00,,,0.00,meteohub,2013-03-28 07:39:00,
2013-03-28 00:45:00,42.8,42.3,29.99,WNW,284,0.0,0.0,98,0.00,,,0.00,meteohub,2013-03-28 07:45:00,
2013-03-28 00:50:00,43.0,42.4,29.99,WNW,283,1.0,0.0,98,0.00,,,0.00,meteohub,2013-03-28 07:50:00,
2013-03-28 00:55:00,43.2,42.6,29.99,WNW,284,0.0,1.0,98,0.00,,,0.00,meteohub,2013-03-28 07:55:00,
2013-03-28 01:00:00,42.8,42.3,30.00,WNW,284,0.0,1.0,98,0.00,,,0.00,meteohub,2013-03-28 08:00:00,
2013-03-28 01:05:00,42.8,42.3,30.00,WNW,284,0.0,1.0,98,0.00,,,0.00,meteohub,2013-03-28 08:05:00,
2013-03-28 01:10:00,43.0,42.4,30.00,WNW,284,0.0,1.0,98,0.00,,,0.00,meteohub,2013-03-28 08:10:00,
2013-03-28 01:15:00,43.0,42.4,30.00,WNW,284,0.0,1.0,98,0.00,,,0.00,meteohub,2013-03-28 08:15:00,
2013-03-28 01:20:00,43.0,42.4,30.00,West,277,0.0,1.0,98,0.00,,,0.00,meteohub,2013-03-28 08:20:00,
2013-03-28 01:25:00,43.0,42.4,30.00,West,277,0.0,1.0,98,0.00,,,0.00,meteohub,2013-03-28 08:25:00,
2013-03-28 01:30:00,42.6,42.1,30.00,West,277,0.0,1.0,98,0.00,,,0.00,meteohub,2013-03-28 08:30:00,
2013-03-28 01:36:00,42.6,42.1,30.00,West,277,0.0,1.0,98,0.00,,,0.00,meteohub,2013-03-28 08:36:00,
2013-03-28 01:41:00,42.8,42.3,30.01,West,277,0.0,1.0,98,0.00,,,0.00,meteohub,2013-03-28 08:41:00,
2013-03-28 01:46:00,43.2,42.6,30.01,West,274,0.0,1.0,98,0.00,,,0.00,meteohub,2013-03-28 08:46:00,
2013-03-28 01:51:00,43.0,42.4,30.01,West,276,0.0,1.0,98,0.00,,,0.00,meteohub,2013-03-28 08:51:00,
2013-03-28 01:56:00,43.2,42.6,30.00,West,276,0.0,1.0,98,0.00,,,0.00,meteohub,2013-03-28 08:56:00,
2013-03-28 02:02:00,43.0,42.4,30.01,West,276,0.0,1.0,98,0.00,,,0.00,meteohub,2013-03-28 09:02:00,
2013-03-28 02:07:00,43.0,42.4,30.00,West,276,0.0,1.0,98,0.00,,,0.00,meteohub,2013-03-28 09:07:00,
2013-03-28 02:12:00,43.0,42.4,30.00,West,276,0.0,1.0,98,0.00,,,0.00,meteohub,2013-03-28 09:12:00,
2013-03-28 02:17:00,43.0,42.4,30.01,West,276,0.0,1.0,98,0.00,,,0.00,meteohub,2013-03-28 09:17:00,
2013-03-28 02:22:00,43.0,42.4,30.01,West,266,0.0,1.0,98,0.00,,,0.00,meteohub,2013-03-28 09:22:00,
2013-03-28 02:27:00,43.0,42.4,30.01,SSW,204,0.0,1.0,98,0.00,,,0.00,meteohub,2013-03-28 09:27:00,
2013-03-28 02:33:00,43.2,42.6,30.01,SW,225,1.0,1.0,98,0.00,,,0.00,meteohub,2013-03-28 09:33:00,
2013-03-28 02:38:00,43.5,43.3,30.01,West,274,1.0,1.0,99,0.00,,,0.00,meteohub,2013-03-28 09:38:00,
2013-03-28 02:43:00,43.5,43.0,30.01,WNW,282,0.0,1.0,98,0.00,,,0.00,meteohub,2013-03-28 09:43:00,
2013-03-28 02:48:00,43.5,43.0,30.01,WNW,283,0.0,1.0,98,0.00,,,0.00,meteohub,2013-03-28 09:48:00,
2013-03-28 02:54:00,43.5,43.0,30.01,WNW,292,0.0,1.0,98,0.00,,,0.00,meteohub,2013-03-28 09:54:00,
2013-03-28 02:59:00,43.5,43.0,30.01,WNW,285,1.0,1.0,98,0.00,,,0.00,meteohub,2013-03-28 09:59:00,
2013-03-28 03:04:00,43.5,43.0,30.01,WNW,282,0.0,1.0,98,0.00,,,0.00,meteohub,2013-03-28 10:04:00,
2013-03-28 03:09:00,43.5,43.0,30.01,WNW,283,0.0,1.0,98,0.00,,,0.00,meteohub,2013-03-28 10:09:00,
2013-03-28 03:15:00,43.5,43.0,30.01,West,277,0.0,1.0,98,0.00,,,0.00,meteohub,2013-03-28 10:15:00,
2013-03-28 03:20:00,43.7,43.2,30.01,WSW,252,0.0,1.0,98,0.00,,,0.00,meteohub,2013-03-28 10:20:00,
2013-03-28 03:25:00,43.7,43.0,30.01,West,281,1.0,1.0,97,0.00,,,0.00,meteohub,2013-03-28 10:25:00,
2013-03-28 03:30:00,43.7,43.0,30.01,West,277,0.0,1.0,97,0.00,,,0.00,meteohub,2013-03-28 10:30:00,
2013-03-28 03:35:00,43.7,43.0,30.02,West,277,0.0,1.0,97,0.00,,,0.00,meteohub,2013-03-28 10:35:00,
2013-03-28 03:40:00,43.7,43.2,30.02,West,281,1.0,1.0,98,0.00,,,0.00,meteohub,2013-03-28 10:40:00,
2013-03-28 03:45:00,43.7,43.0,30.02,WNW,283,0.0,1.0,97,0.00,,,0.00,meteohub,2013-03-28 10:45:00,
2013-03-28 03:50:00,43.9,43.2,30.02,WNW,287,1.0,1.0,97,0.00,,,0.00,meteohub,2013-03-28 10:50:00,
2013-03-28 03:56:00,43.9,43.2,30.01,WNW,287,0.0,1.0,97,0.00,,,0.00,meteohub,2013-03-28 10:56:00,
2013-03-28 04:01:00,43.9,43.2,30.01,NE,53,0.0,1.0,97,0.00,,,0.00,meteohub,2013-03-28 11:01:00,
2013-03-28 04:06:00,43.9,43.2,30.02,NNW,347,0.0,1.0,97,0.00,,,0.00,meteohub,2013-03-28 11:06:00,
2013-03-28 04:11:00,43.9,43.2,30.02,NNW,347,0.0,1.0,97,0.00,,,0.00,meteohub,2013-03-28 11:11:00,
2013-03-28 04:17:00,43.9,43.2,30.02,WSW,256,0.0,1.0,97,0.00,,,0.00,meteohub,2013-03-28 11:17:00,
2013-03-28 04:22:00,44.1,43.3,30.02,West,274,0.0,1.0,97,0.00,,,0.00,meteohub,2013-03-28 11:22:00,
2013-03-28 04:27:00,44.1,43.3,30.02,WNW,287,0.0,1.0,97,0.00,,,0.00,meteohub,2013-03-28 11:27:00,
2013-03-28 04:32:00,44.1,43.3,30.02,West,259,0.0,1.0,97,0.00,,,0.00,meteohub,2013-03-28 11:32:00,
2013-03-28 04:37:00,44.1,43.3,30.02,WSW,242,0.0,1.0,97,0.00,,,0.00,meteohub,2013-03-28 11:37:00,
2013-03-28 04:42:00,44.1,43.3,30.02,WSW,242,0.0,1.0,97,0.00,,,0.00,meteohub,2013-03-28 11:42:00,
2013-03-28 04:47:00,44.1,43.3,30.02,WSW,242,0.0,1.0,97,0.00,,,0.00,meteohub,2013-03-28 11:47:00,
2013-03-28 04:52:00,44.1,43.3,30.03,West,276,1.0,1.0,97,0.00,,,0.00,meteohub,2013-03-28 11:52:00,
2013-03-28 04:57:00,44.1,43.3,30.02,West,277,2.0,3.0,97,0.00,,,0.00,meteohub,2013-03-28 11:57:00,
2013-03-28 05:03:00,44.4,43.3,30.02,West,260,0.0,3.0,96,0.00,,,0.00,meteohub,2013-03-28 12:03:00,
2013-03-28 05:08:00,44.4,43.3,30.03,WSW,257,0.0,3.0,96,0.00,,,0.00,meteohub,2013-03-28 12:08:00,
2013-03-28 05:13:00,44.4,43.3,30.03,WSW,257,0.0,2.0,96,0.00,,,0.00,meteohub,2013-03-28 12:13:00,
2013-03-28 05:18:00,44.2,43.2,30.03,WSW,257,0.0,1.0,96,0.00,,,0.00,meteohub,2013-03-28 12:18:00,
2013-03-28 05:24:00,44.2,43.5,30.03,West,259,0.0,1.0,97,0.00,,,0.00,meteohub,2013-03-28 12:24:00,
2013-03-28 05:29:00,44.2,43.5,30.03,West,259,0.0,1.0,97,0.01,,,0.01,meteohub,2013-03-28 12:29:00,
2013-03-28 05:34:00,44.4,43.7,30.03,WNW,291,2.0,2.0,97,0.01,,,0.01,meteohub,2013-03-28 12:34:00,
2013-03-28 05:40:00,44.6,43.9,30.03,West,264,1.0,3.0,97,0.01,,,0.01,meteohub,2013-03-28 12:40:00,
2013-03-28 05:45:00,44.6,43.9,30.03,West,260,1.0,3.0,97,0.01,,,0.01,meteohub,2013-03-28 12:45:00,
2013-03-28 05:50:00,44.8,44.1,30.04,West,281,1.0,3.0,97,0.01,,,0.01,meteohub,2013-03-28 12:50:00,
2013-03-28 05:55:00,44.8,44.1,30.04,West,281,0.0,2.0,97,0.01,,,0.01,meteohub,2013-03-28 12:55:00,
2013-03-28 06:00:00,44.8,44.1,30.04,West,281,0.0,2.0,97,0.01,,,0.01,meteohub,2013-03-28 13:00:00,
2013-03-28 06:05:00,44.6,43.9,30.04,West,281,1.0,1.0,97,0.02,,,0.02,meteohub,2013-03-28 13:05:00,
2013-03-28 06:10:00,44.8,44.1,30.04,West,281,0.0,1.0,97,0.02,,,0.02,meteohub,2013-03-28 13:10:00,
2013-03-28 06:15:00,45.0,44.4,30.04,West,264,1.0,2.0,98,0.03,,,0.03,meteohub,2013-03-28 13:15:00,
2013-03-28 06:21:00,45.0,44.4,30.04,West,276,1.0,2.0,98,0.03,,,0.03,meteohub,2013-03-28 13:21:00,
2013-03-28 06:26:00,45.0,44.4,30.04,West,277,0.0,2.0,98,0.02,,,0.03,meteohub,2013-03-28 13:26:00,
2013-03-28 06:31:00,45.1,44.6,30.04,West,277,0.0,2.0,98,0.02,,,0.03,meteohub,2013-03-28 13:31:00,
2013-03-28 06:37:00,45.0,44.2,30.04,West,277,0.0,1.0,97,0.02,,,0.03,meteohub,2013-03-28 13:37:00,
2013-03-28 06:42:00,45.0,44.4,30.04,West,277,1.0,1.0,98,0.02,,,0.03,meteohub,2013-03-28 13:42:00,
2013-03-28 06:47:00,45.0,44.4,30.04,WNW,282,0.0,1.0,98,0.02,,,0.03,meteohub,2013-03-28 13:47:00,
2013-03-28 06:52:00,45.0,44.4,30.04,North,356,0.0,1.0,98,0.03,,,0.04,meteohub,2013-03-28 13:52:00,
2013-03-28 06:57:00,45.0,44.4,30.04,North,356,0.0,2.0,98,0.05,,,0.06,meteohub,2013-03-28 13:57:00,
2013-03-28 07:02:00,45.0,44.4,30.04,WNW,298,1.0,2.0,98,0.06,,,0.07,meteohub,2013-03-28 14:02:00,
2013-03-28 07:07:00,45.0,44.4,30.04,WNW,290,2.0,2.0,98,0.08,,,0.10,meteohub,2013-03-28 14:07:00,
2013-03-28 07:12:00,45.0,44.4,30.04,WNW,287,1.0,2.0,98,0.09,,,0.11,meteohub,2013-03-28 14:12:00,
2013-03-28 07:17:00,45.0,44.4,30.04,NNE,12,2.0,2.0,98,0.11,,,0.14,meteohub,2013-03-28 14:17:00,
2013-03-28 07:22:00,45.1,44.6,30.04,NNE,12,0.0,2.0,98,0.11,,,0.14,meteohub,2013-03-28 14:22:00,
2013-03-28 07:28:00,45.3,44.8,30.04,SE,129,1.0,2.0,98,0.12,,,0.15,meteohub,2013-03-28 14:28:00,
2013-03-28 07:33:00,45.3,44.8,30.05,SSW,212,0.0,4.0,98,0.12,,,0.15,meteohub,2013-03-28 14:33:00,
2013-03-28 07:38:00,45.3,44.8,30.05,SW,225,2.0,4.0,98,0.12,,,0.15,meteohub,2013-03-28 14:38:00,
2013-03-28 07:43:00,45.3,44.8,30.06,South,191,1.0,4.0,98,0.12,,,0.15,meteohub,2013-03-28 14:43:00,
2013-03-28 07:48:00,45.5,45.0,30.06,SE,146,1.0,2.0,98,0.12,,,0.15,meteohub,2013-03-28 14:48:00,
2013-03-28 07:53:00,45.5,45.0,30.06,WSW,248,1.0,2.0,98,0.11,,,0.15,meteohub,2013-03-28 14:53:00,
2013-03-28 07:59:00,45.7,45.1,30.06,South,170,0.0,2.0,98,0.09,,,0.15,meteohub,2013-03-28 14:59:00,
2013-03-28 08:04:00,45.7,45.1,30.06,SE,146,2.0,2.0,98,0.07,,,0.15,meteohub,2013-03-28 15:04:00,
2013-03-28 08:09:00,45.7,45.1,30.07,SE,143,0.0,2.0,98,0.04,,,0.15,meteohub,2013-03-28 15:09:00,
2013-03-28 08:15:00,45.9,45.3,30.07,SE,125,3.0,3.0,98,0.03,,,0.15,meteohub,2013-03-28 15:15:00,
2013-03-28 08:20:00,45.9,45.3,30.07,SE,139,2.0,5.0,98,0.01,,,0.15,meteohub,2013-03-28 15:20:00,
2013-03-28 08:25:00,46.0,45.5,30.07,SE,139,0.0,5.0,98,0.00,,,0.15,meteohub,2013-03-28 15:25:00,
2013-03-28 08:30:00,46.2,45.7,30.07,SE,139,0.0,5.0,98,0.00,,,0.15,meteohub,2013-03-28 15:30:00,
2013-03-28 08:35:00,46.2,45.7,30.07,WSW,256,1.0,3.0,98,0.00,,,0.15,meteohub,2013-03-28 15:35:00,
2013-03-28 08:40:00,46.2,45.7,30.07,West,280,1.0,1.0,98,0.00,,,0.15,meteohub,2013-03-28 15:40:00,
2013-03-28 08:46:00,46.4,45.9,30.07,West,278,0.0,1.0,98,0.00,,,0.15,meteohub,2013-03-28 15:46:00,
2013-03-28 08:51:00,46.6,46.0,30.07,West,278,0.0,1.0,98,0.00,,,0.15,meteohub,2013-03-28 15:51:00,
2013-03-28 08:56:00,46.8,46.2,30.08,West,278,0.0,1.0,98,0.00,,,0.15,meteohub,2013-03-28 15:56:00,
2013-03-28 09:01:00,46.8,46.2,30.08,West,278,0.0,1.0,98,0.00,,,0.15,meteohub,2013-03-28 16:01:00,
2013-03-28 09:07:00,46.9,46.4,30.08,West,278,0.0,1.0,98,0.00,,,0.15,meteohub,2013-03-28 16:07:00,
2013-03-28 09:12:00,46.9,46.4,30.08,West,278,0.0,1.0,98,0.00,,,0.15,meteohub,2013-03-28 16:12:00,
2013-03-28 09:17:00,46.9,46.2,30.08,West,278,0.0,0.0,97,0.00,,,0.15,meteohub,2013-03-28 16:17:00,
2013-03-28 09:22:00,47.1,46.6,30.08,West,278,0.0,0.0,98,0.00,,,0.15,meteohub,2013-03-28 16:22:00,
2013-03-28 09:27:00,47.1,46.6,30.08,West,278,0.0,0.0,98,0.00,,,0.15,meteohub,2013-03-28 16:27:00,
2013-03-28 09:32:00,47.3,46.6,30.08,West,278,0.0,0.0,97,0.00,,,0.15,meteohub,2013-03-28 16:32:00,
2013-03-28 09:37:00,47.3,46.6,30.08,West,278,0.0,0.0,97,0.00,,,0.15,meteohub,2013-03-28 16:37:00,
2013-03-28 09:43:00,47.3,46.6,30.08,West,278,1.0,0.0,97,0.00,,,0.15,meteohub,2013-03-28 16:43:00,
2013-03-28 09:48:00,47.5,46.8,30.08,West,278,0.0,1.0,97,0.00,,,0.15,meteohub,2013-03-28 16:48:00,
2013-03-28 09:53:00,47.7,46.9,30.08,West,278,0.0,1.0,97,0.00,,,0.15,meteohub,2013-03-28 16:53:00,
2013-03-28 09:58:00,47.8,46.9,30.08,West,278,0.0,1.0,97,0.00,,,0.15,meteohub,2013-03-28 16:58:00,
2013-03-28 10:03:00,48.0,47.1,30.08,West,278,0.0,1.0,97,0.00,,,0.15,meteohub,2013-03-28 17:03:00,
2013-03-28 10:09:00,48.4,47.5,30.08,West,278,0.0,1.0,97,0.00,,,0.15,meteohub,2013-03-28 17:09:00,
2013-03-28 10:14:00,48.9,48.0,30.09,WSW,253,0.0,1.0,97,0.00,,,0.15,meteohub,2013-03-28 17:14:00,
2013-03-28 10:19:00,49.5,48.6,30.09,SSW,210,1.0,1.0,97,0.00,,,0.15,meteohub,2013-03-28 17:19:00,
2013-03-28 10:24:00,50.0,48.9,30.09,SSW,208,0.0,1.0,96,0.00,,,0.15,meteohub,2013-03-28 17:24:00,
2013-03-28 10:29:00,50.4,48.4,30.09,SSE,161,1.0,1.0,93,0.00,,,0.15,meteohub,2013-03-28 17:29:00,
2013-03-28 10:34:00,50.2,48.2,30.09,SE,146,0.0,3.0,93,0.00,,,0.15,meteohub,2013-03-28 17:34:00,
2013-03-28 10:40:00,51.1,49.1,30.09,SSW,211,0.0,3.0,93,0.00,,,0.15,meteohub,2013-03-28 17:40:00,
2013-03-28 10:45:00,52.2,50.5,30.09,East,89,0.0,3.0,94,0.00,,,0.15,meteohub,2013-03-28 17:45:00,
2013-03-28 10:50:00,52.2,49.1,30.09,WSW,238,0.0,3.0,89,0.00,,,0.15,meteohub,2013-03-28 17:50:00,
2013-03-28 10:55:00,51.8,48.4,30.09,East,85,1.0,2.0,88,0.00,,,0.15,meteohub,2013-03-28 17:55:00,
2013-03-28 11:00:00,50.7,47.8,30.09,ENE,68,2.0,2.0,90,0.00,,,0.15,meteohub,2013-03-28 18:00:00,
2013-03-28 11:05:00,50.2,47.7,30.09,NE,36,3.0,4.0,91,0.00,,,0.15,meteohub,2013-03-28 18:05:00,
2013-03-28 11:10:00,50.0,48.0,30.09,ENE,62,3.0,4.0,93,0.00,,,0.15,meteohub,2013-03-28 18:10:00,
2013-03-28 11:16:00,50.4,48.2,30.09,East,82,3.0,4.0,92,0.00,,,0.15,meteohub,2013-03-28 18:16:00,
2013-03-28 11:21:00,49.8,47.3,30.09,East,95,4.0,4.0,91,0.00,,,0.15,meteohub,2013-03-28 18:21:00,
2013-03-28 11:26:00,50.2,48.0,30.09,East,84,1.0,4.0,92,0.00,,,0.15,meteohub,2013-03-28 18:26:00,
2013-03-28 11:31:00,50.4,47.8,30.09,East,94,3.0,4.0,91,0.00,,,0.15,meteohub,2013-03-28 18:31:00,
2013-03-28 11:37:00,50.0,47.5,30.09,East,80,2.0,4.0,91,0.00,,,0.15,meteohub,2013-03-28 18:37:00,
2013-03-28 11:42:00,50.2,48.0,30.09,ESE,103,2.0,4.0,92,0.00,,,0.15,meteohub,2013-03-28 18:42:00,
2013-03-28 11:47:00,51.1,48.6,30.09,East,88,3.0,4.0,91,0.00,,,0.15,meteohub,2013-03-28 18:47:00,
2013-03-28 11:52:00,51.4,48.4,30.09,East,98,3.0,5.0,89,0.00,,,0.15,meteohub,2013-03-28 18:52:00,
2013-03-28 11:57:00,51.4,48.4,30.09,ENE,75,4.0,5.0,89,0.00,,,0.15,meteohub,2013-03-28 18:57:00,
2013-03-28 12:02:00,52.0,49.1,30.09,East,98,1.0,5.0,90,0.00,,,0.15,meteohub,2013-03-28 19:02:00,
2013-03-28 12:07:00,53.1,48.9,30.09,East,84,2.0,5.0,86,0.00,,,0.15,meteohub,2013-03-28 19:07:00,
2013-03-28 12:12:00,53.1,48.0,30.09,ENE,64,3.0,5.0,83,0.00,,,0.15,meteohub,2013-03-28 19:12:00,
2013-03-28 12:17:00,53.2,48.6,30.09,ESE,108,0.0,5.0,84,0.00,,,0.15,meteohub,2013-03-28 19:17:00,
2013-03-28 12:22:00,54.1,48.4,30.09,East,79,3.0,5.0,81,0.00,,,0.15,meteohub,2013-03-28 19:22:00,
2013-03-28 12:28:00,54.1,49.5,30.09,ENE,68,2.0,5.0,84,0.00,,,0.15,meteohub,2013-03-28 19:28:00,
2013-03-28 12:33:00,53.8,48.7,30.09,ENE,61,2.0,5.0,83,0.00,,,0.15,meteohub,2013-03-28 19:33:00,
2013-03-28 12:38:00,53.4,48.0,30.09,East,84,3.0,5.0,82,0.00,,,0.15,meteohub,2013-03-28 19:38:00,
2013-03-28 12:44:00,53.6,48.9,30.08,ENE,64,4.0,5.0,84,0.00,,,0.15,meteohub,2013-03-28 19:44:00,
2013-03-28 12:49:00,53.4,48.4,30.08,ENE,68,3.0,5.0,83,0.00,,,0.15,meteohub,2013-03-28 19:49:00,
2013-03-28 12:54:00,53.2,48.6,30.08,NNE,27,2.0,5.0,84,0.00,,,0.15,meteohub,2013-03-28 19:54:00,
2013-03-28 12:59:00,53.6,47.8,30.08,ESE,112,2.0,5.0,81,0.00,,,0.15,meteohub,2013-03-28 19:59:00,
2013-03-28 13:05:00,54.3,47.7,30.08,East,86,2.0,5.0,78,0.00,,,0.15,meteohub,2013-03-28 20:05:00,
2013-03-28 13:10:00,55.2,49.1,30.08,ESE,116,2.0,4.0,80,0.00,,,0.15,meteohub,2013-03-28 20:10:00,
2013-03-28 13:15:00,54.9,48.6,30.08,ENE,77,3.0,4.0,79,0.00,,,0.15,meteohub,2013-03-28 20:15:00,
2013-03-28 13:20:00,54.7,50.0,30.08,ENE,72,1.0,5.0,84,0.00,,,0.15,meteohub,2013-03-28 20:20:00,
2013-03-28 13:26:00,54.9,50.2,30.08,ENE,69,2.0,5.0,84,0.00,,,0.15,meteohub,2013-03-28 20:26:00,
2013-03-28 13:31:00,55.0,49.6,30.08,East,80,4.0,5.0,82,0.00,,,0.15,meteohub,2013-03-28 20:31:00,
2013-03-28 13:36:00,55.0,50.4,30.08,ENE,73,4.0,6.0,84,0.00,,,0.15,meteohub,2013-03-28 20:36:00,
2013-03-28 13:41:00,55.8,50.7,30.08,ENE,63,4.0,6.0,83,0.00,,,0.15,meteohub,2013-03-28 20:41:00,
2013-03-28 13:46:00,56.5,51.4,30.09,East,98,4.0,6.0,83,0.00,,,0.15,meteohub,2013-03-28 20:46:00,
2013-03-28 13:51:00,55.0,50.5,30.08,East,92,5.0,7.0,85,0.00,,,0.15,meteohub,2013-03-28 20:51:00,
2013-03-28 13:56:00,54.0,50.2,30.09,East,88,3.0,7.0,87,0.00,,,0.15,meteohub,2013-03-28 20:56:00,
2013-03-28 14:02:00,54.3,50.2,30.08,NNE,27,4.0,8.0,86,0.00,,,0.15,meteohub,2013-03-28 21:02:00,
2013-03-28 14:07:00,54.1,49.8,30.08,ENE,58,4.0,8.0,85,0.00,,,0.15,meteohub,2013-03-28 21:07:00,
2013-03-28 14:12:00,52.9,48.7,30.08,NNE,25,6.0,7.0,86,0.00,,,0.15,meteohub,2013-03-28 21:12:00,
2013-03-28 14:17:00,52.5,49.1,30.08,NE,54,5.0,7.0,88,0.00,,,0.15,meteohub,2013-03-28 21:17:00,
2013-03-28 14:22:00,52.5,49.1,30.08,North,352,3.0,7.0,88,0.00,,,0.15,meteohub,2013-03-28 21:22:00,
2013-03-28 14:27:00,53.2,49.1,30.08,ENE,57,5.0,7.0,86,0.00,,,0.15,meteohub,2013-03-28 21:27:00,
2013-03-28 14:32:00,54.3,49.8,30.07,ENE,65,4.0,6.0,85,0.00,,,0.15,meteohub,2013-03-28 21:32:00,
2013-03-28 14:37:00,54.3,49.8,30.07,NE,40,2.0,7.0,85,0.00,,,0.15,meteohub,2013-03-28 21:37:00,
2013-03-28 14:42:00,54.0,49.3,30.07,NNE,25,3.0,7.0,84,0.00,,,0.15,meteohub,2013-03-28 21:42:00,
2013-03-28 14:47:00,53.4,49.3,30.07,ENE,65,5.0,6.0,86,0.00,,,0.15,meteohub,2013-03-28 21:47:00,
2013-03-28 14:52:00,53.8,49.5,30.07,ENE,63,3.0,6.0,85,0.00,,,0.15,meteohub,2013-03-28 21:52:00,
2013-03-28 14:58:00,54.3,48.9,30.07,NE,37,1.0,6.0,82,0.00,,,0.15,meteohub,2013-03-28 21:58:00,
2013-03-28 15:03:00,54.9,49.1,30.06,ENE,72,3.0,6.0,81,0.00,,,0.15,meteohub,2013-03-28 22:03:00,
2013-03-28 15:08:00,55.4,49.6,30.06,ENE,58,4.0,6.0,81,0.00,,,0.15,meteohub,2013-03-28 22:08:00,
2013-03-28 15:13:00,55.9,49.1,30.06,ENE,65,3.0,6.0,78,0.00,,,0.15,meteohub,2013-03-28 22:13:00,
2013-03-28 15:18:00,55.8,48.9,30.06,ESE,107,2.0,6.0,78,0.00,,,0.15,meteohub,2013-03-28 22:18:00,
2013-03-28 15:24:00,54.7,48.9,30.06,ENE,67,2.0,6.0,81,0.00,,,0.15,meteohub,2013-03-28 22:24:00,
2013-03-28 15:29:00,54.1,48.4,30.06,North,4,3.0,6.0,81,0.00,,,0.15,meteohub,2013-03-28 22:29:00,
2013-03-28 15:34:00,55.0,48.6,30.06,ENE,63,2.0,6.0,79,0.00,,,0.15,meteohub,2013-03-28 22:34:00,
2013-03-28 15:39:00,55.4,48.4,30.06,ENE,76,2.0,6.0,77,0.00,,,0.15,meteohub,2013-03-28 22:39:00,
2013-03-28 15:44:00,55.8,48.7,30.06,ESE,106,3.0,6.0,77,0.00,,,0.15,meteohub,2013-03-28 22:44:00,
2013-03-28 15:50:00,55.6,49.1,30.06,ESE,112,1.0,5.0,79,0.00,,,0.15,meteohub,2013-03-28 22:50:00,
2013-03-28 15:55:00,55.4,48.4,30.06,East,94,1.0,5.0,77,0.00,,,0.15,meteohub,2013-03-28 22:55:00,
2013-03-28 16:00:00,55.0,48.4,30.06,NNE,15,2.0,5.0,78,0.00,,,0.15,meteohub,2013-03-28 23:00:00,
2013-03-28 16:05:00,54.9,48.6,30.06,ENE,71,2.0,5.0,79,0.00,,,0.15,meteohub,2013-03-28 23:05:00,
2013-03-28 16:10:00,55.6,48.6,30.06,NNE,30,3.0,5.0,77,0.00,,,0.15,meteohub,2013-03-28 23:10:00,
2013-03-28 16:15:00,55.6,48.6,30.06,NE,39,3.0,6.0,77,0.00,,,0.15,meteohub,2013-03-28 23:15:00,
2013-03-28 16:21:00,56.3,48.6,30.06,NNE,18,2.0,6.0,75,0.00,,,0.15,meteohub,2013-03-28 23:21:00,
2013-03-28 16:26:00,55.9,48.2,30.06,NE,45,5.0,6.0,75,0.00,,,0.15,meteohub,2013-03-28 23:26:00,
2013-03-28 16:31:00,56.1,48.4,30.06,NE,51,3.0,6.0,75,0.00,,,0.15,meteohub,2013-03-28 23:31:00,
2013-03-28 16:37:00,55.6,48.2,30.06,NNE,23,4.0,6.0,76,0.00,,,0.15,meteohub,2013-03-28 23:37:00,
2013-03-28 16:42:00,55.0,48.6,30.06,NNE,30,1.0,6.0,79,0.00,,,0.15,meteohub,2013-03-28 23:42:00,
2013-03-28 16:47:00,55.0,48.6,30.06,NE,46,3.0,5.0,79,0.00,,,0.15,meteohub,2013-03-28 23:47:00,
2013-03-28 16:52:00,54.5,48.4,30.06,ENE,65,1.0,5.0,80,0.00,,,0.15,meteohub,2013-03-28 23:52:00,
2013-03-28 16:57:00,54.3,48.2,30.06,NNE,31,4.0,5.0,80,0.00,,,0.15,meteohub,2013-03-28 23:57:00,
2013-03-28 17:02:00,54.3,48.2,30.06,NE,42,4.0,4.0,80,0.00,,,0.15,meteohub,2013-03-29 00:02:00,
2013-03-28 17:08:00,54.5,48.2,30.06,NNE,30,2.0,4.0,79,0.00,,,0.00,meteohub,2013-03-29 00:08:00,
2013-03-28 17:13:00,54.3,48.2,30.06,NNE,20,0.0,5.0,80,0.00,,,0.00,meteohub,2013-03-29 00:13:00,
2013-03-28 17:18:00,54.0,48.2,30.06,NNE,30,2.0,5.0,81,0.00,,,0.00,meteohub,2013-03-29 00:18:00,
2013-03-28 17:23:00,54.0,48.0,30.06,NNE,32,5.0,5.0,80,0.00,,,0.00,meteohub,2013-03-29 00:23:00,
2013-03-28 17:28:00,53.6,47.8,30.06,North,11,1.0,5.0,81,0.00,,,0.00,meteohub,2013-03-29 00:28:00,
2013-03-28 17:33:00,53.6,48.2,30.06,NE,51,0.0,5.0,82,0.00,,,0.00,meteohub,2013-03-29 00:33:00,
2013-03-28 17:39:00,53.8,48.4,30.06,NNE,33,0.0,5.0,82,0.00,,,0.00,meteohub,2013-03-29 00:39:00,
2013-03-28 17:44:00,53.8,48.4,30.06,NNE,29,1.0,4.0,82,0.00,,,0.00,meteohub,2013-03-29 00:44:00,
2013-03-28 17:49:00,54.0,48.2,30.06,NNE,29,0.0,2.0,81,0.00,,,0.00,meteohub,2013-03-29 00:49:00,
2013-03-28 17:54:00,54.1,48.0,30.06,North,354,0.0,2.0,80,0.00,,,0.00,meteohub,2013-03-29 00:54:00,
2013-03-28 18:00:00,54.5,48.7,30.06,NW,311,0.0,1.0,81,0.00,,,0.00,meteohub,2013-03-29 01:00:00,
2013-03-28 18:05:00,54.7,48.6,30.06,NW,311,0.0,1.0,80,0.00,,,0.00,meteohub,2013-03-29 01:05:00,
2013-03-28 18:10:00,54.3,48.6,30.06,NW,311,0.0,1.0,81,0.00,,,0.00,meteohub,2013-03-29 01:10:00,
2013-03-28 18:15:00,54.3,48.6,30.06,NW,311,0.0,0.0,81,0.00,,,0.00,meteohub,2013-03-29 01:15:00,
2013-03-28 18:20:00,54.5,48.7,30.06,West,269,1.0,0.0,81,0.00,,,0.00,meteohub,2013-03-29 01:20:00,
2013-03-28 18:26:00,54.3,49.3,30.06,West,280,0.0,1.0,83,0.00,,,0.00,meteohub,2013-03-29 01:26:00,
2013-03-28 18:31:00,54.3,48.9,30.07,SW,236,1.0,2.0,82,0.00,,,0.00,meteohub,2013-03-29 01:31:00,
2013-03-28 18:36:00,54.3,49.3,30.07,NW,305,4.0,4.0,83,0.00,,,0.00,meteohub,2013-03-29 01:36:00,
2013-03-28 18:42:00,54.7,50.0,30.07,West,280,3.0,5.0,84,0.00,,,0.00,meteohub,2013-03-29 01:42:00,
2013-03-28 18:47:00,54.9,50.2,30.07,WNW,300,1.0,5.0,84,0.00,,,0.00,meteohub,2013-03-29 01:47:00,
2013-03-28 18:52:00,54.9,50.2,30.07,West,277,1.0,5.0,84,0.00,,,0.00,meteohub,2013-03-29 01:52:00,
2013-03-28 18:57:00,54.9,50.4,30.07,WNW,284,1.0,3.0,85,0.00,,,0.00,meteohub,2013-03-29 01:57:00,
2013-03-28 19:02:00,54.5,49.8,30.07,West,281,2.0,3.0,84,0.00,,,0.00,meteohub,2013-03-29 02:02:00,
2013-03-28 19:08:00,54.3,49.8,30.07,WSW,243,0.0,3.0,85,0.00,,,0.00,meteohub,2013-03-29 02:08:00,
2013-03-28 19:13:00,54.0,49.6,30.07,WSW,243,0.0,3.0,85,0.00,,,0.00,meteohub,2013-03-29 02:13:00,
2013-03-28 19:18:00,53.4,49.6,30.07,WSW,243,0.0,3.0,87,0.00,,,0.00,meteohub,2013-03-29 02:18:00,
2013-03-28 19:23:00,53.2,49.5,30.08,WSW,243,0.0,2.0,87,0.00,,,0.00,meteohub,2013-03-29 02:23:00,
2013-03-28 19:28:00,53.1,49.6,30.08,WSW,243,0.0,0.0,88,0.00,,,0.00,meteohub,2013-03-29 02:28:00,
2013-03-28 19:33:00,52.9,49.6,30.08,NNW,346,0.0,0.0,89,0.00,,,0.00,meteohub,2013-03-29 02:33:00,
2013-03-28 19:39:00,52.5,49.6,30.08,NNW,345,0.0,1.0,90,0.00,,,0.00,meteohub,2013-03-29 02:39:00,
2013-03-28 19:44:00,52.3,49.3,30.08,NNW,344,0.0,1.0,89,0.00,,,0.00,meteohub,2013-03-29 02:44:00,
2013-03-28 19:49:00,52.2,49.3,30.08,NNW,345,0.0,1.0,90,0.00,,,0.00,meteohub,2013-03-29 02:49:00,
2013-03-28 19:54:00,52.2,49.6,30.08,West,270,0.0,1.0,91,0.00,,,0.00,meteohub,2013-03-29 02:54:00,
2013-03-28 20:00:00,52.2,49.3,30.08,WSW,248,0.0,1.0,90,0.00,,,0.00,meteohub,2013-03-29 03:00:00,
2013-03-28 20:05:00,52.0,49.5,30.09,WSW,248,0.0,1.0,91,0.00,,,0.00,meteohub,2013-03-29 03:05:00,
2013-03-28 20:10:00,51.6,49.5,30.09,WSW,248,0.0,1.0,92,0.00,,,0.00,meteohub,2013-03-29 03:10:00,
2013-03-28 20:16:00,51.4,49.3,30.09,West,273,0.0,1.0,92,0.00,,,0.00,meteohub,2013-03-29 03:16:00,
2013-03-28 20:21:00,51.4,49.3,30.09,West,273,0.0,1.0,92,0.00,,,0.00,meteohub,2013-03-29 03:21:00,
2013-03-28 20:26:00,51.3,49.1,30.09,SE,141,0.0,1.0,92,0.00,,,0.00,meteohub,2013-03-29 03:26:00,
2013-03-28 20:31:00,51.1,49.1,30.09,SE,141,1.0,1.0,93,0.00,,,0.00,meteohub,2013-03-29 03:31:00,
2013-03-28 20:36:00,51.1,49.1,30.10,SE,141,0.0,1.0,93,0.00,,,0.00,meteohub,2013-03-29 03:36:00,
2013-03-28 20:41:00,51.1,49.1,30.10,WSW,248,0.0,1.0,93,0.00,,,0.00,meteohub,2013-03-29 03:41:00,
2013-03-28 20:47:00,50.9,48.9,30.10,West,281,0.0,1.0,93,0.00,,,0.00,meteohub,2013-03-29 03:47:00,
2013-03-28 20:52:00,51.1,48.9,30.10,WNW,285,0.0,1.0,92,0.00,,,0.00,meteohub,2013-03-29 03:52:00,
2013-03-28 20:57:00,50.9,48.7,30.10,WNW,285,0.0,1.0,92,0.00,,,0.00,meteohub,2013-03-29 03:57:00,
2013-03-28 21:00:00,50.7,48.6,30.10,WNW,285,0.0,1.0,92,0.00,,,0.00,meteohub,2013-03-29 04:00:00,
2013-03-28 21:01:00,50.7,48.6,30.10,WNW,285,0.0,1.0,92,0.00,,,0.00,meteohub,2013-03-29 04:01:00,
2013-03-28 21:03:00,50.7,48.6,30.10,WNW,285,0.0,1.0,92,0.00,,,0.00,meteohub,2013-03-29 04:03:00,
2013-03-28 21:08:00,50.5,48.4,30.11,WNW,285,0.0,1.0,92,0.00,,,0.00,meteohub,2013-03-29 04:08:00,
2013-03-28 21:13:00,50.4,48.4,30.11,NW,311,0.0,1.0,93,0.00,,,0.00,meteohub,2013-03-29 04:13:00,
2013-03-28 21:18:00,50.4,48.2,30.11,NW,311,0.0,1.0,92,0.00,,,0.00,meteohub,2013-03-29 04:18:00,
2013-03-28 21:24:00,50.4,48.2,30.11,NW,310,0.0,1.0,92,0.00,,,0.00,meteohub,2013-03-29 04:24:00,
2013-03-28 21:29:00,50.4,48.4,30.11,NW,310,0.0,1.0,93,0.00,,,0.00,meteohub,2013-03-29 04:29:00,
2013-03-28 21:34:00,50.2,48.0,30.12,NW,311,0.0,0.0,92,0.00,,,0.00,meteohub,2013-03-29 04:34:00,
2013-03-28 21:39:00,50.4,48.2,30.12,NW,311,0.0,0.0,92,0.00,,,0.00,meteohub,2013-03-29 04:39:00,
2013-03-28 21:45:00,50.4,48.2,30.12,WNW,298,0.0,0.0,92,0.00,,,0.00,meteohub,2013-03-29 04:45:00,
2013-03-28 21:50:00,50.4,48.2,30.12,WNW,298,0.0,1.0,92,0.00,,,0.00,meteohub,2013-03-29 04:50:00,
2013-03-28 21:55:00,50.2,48.0,30.12,WNW,298,0.0,1.0,92,0.00,,,0.00,meteohub,2013-03-29 04:55:00,
2013-03-28 22:00:00,50.0,48.0,30.12,WNW,298,0.0,1.0,93,0.00,,,0.00,meteohub,2013-03-29 05:00:00,
2013-03-28 22:06:00,49.8,47.7,30.12,WNW,287,0.0,1.0,92,0.00,,,0.00,meteohub,2013-03-29 05:06:00,
2013-03-28 22:11:00,49.8,47.8,30.12,WNW,287,0.0,1.0,93,0.00,,,0.00,meteohub,2013-03-29 05:11:00,
2013-03-28 22:16:00,49.6,47.7,30.13,WNW,287,0.0,1.0,93,0.00,,,0.00,meteohub,2013-03-29 05:16:00,
2013-03-28 22:21:00,49.5,47.5,30.13,WNW,287,0.0,0.0,93,0.00,,,0.00,meteohub,2013-03-29 05:21:00,
2013-03-28 22:27:00,49.3,47.7,30.13,WNW,287,0.0,0.0,94,0.00,,,0.00,meteohub,2013-03-29 05:27:00,
2013-03-28 22:32:00,48.9,47.3,30.13,WNW,287,0.0,0.0,94,0.00,,,0.00,meteohub,2013-03-29 05:32:00,
2013-03-28 22:37:00,48.7,47.1,30.13,WNW,287,0.0,0.0,94,0.00,,,0.00,meteohub,2013-03-29 05:37:00,
2013-03-28 22:42:00,48.4,46.8,30.13,WNW,287,0.0,0.0,94,0.00,,,0.00,meteohub,2013-03-29 05:42:00,
2013-03-28 22:47:00,48.4,46.8,30.13,WNW,287,0.0,0.0,94,0.00,,,0.00,meteohub,2013-03-29 05:47:00,
2013-03-28 22:52:00,48.4,46.8,30.13,West,267,0.0,1.0,94,0.00,,,0.00,meteohub,2013-03-29 05:52:00,
2013-03-28 22:57:00,48.2,46.6,30.14,West,267,0.0,1.0,94,0.00,,,0.00,meteohub,2013-03-29 05:57:00,
2013-03-28 23:03:00,48.0,46.4,30.14,West,267,0.0,1.0,94,0.00,,,0.00,meteohub,2013-03-29 06:03:00,
2013-03-28 23:08:00,47.8,46.2,30.14,West,267,0.0,1.0,94,0.00,,,0.00,meteohub,2013-03-29 06:08:00,
2013-03-28 23:13:00,47.7,46.0,30.14,West,267,0.0,1.0,94,0.00,,,0.00,meteohub,2013-03-29 06:13:00,
2013-03-28 23:18:00,47.5,46.0,30.14,West,267,0.0,1.0,95,0.00,,,0.00,meteohub,2013-03-29 06:18:00,
2013-03-28 23:23:00,47.5,46.0,30.14,West,269,1.0,1.0,95,0.00,,,0.00,meteohub,2013-03-29 06:23:00,
2013-03-28 23:29:00,47.3,45.9,30.14,West,270,1.0,1.0,95,0.00,,,0.00,meteohub,2013-03-29 06:29:00,
2013-03-28 23:34:00,46.9,45.5,30.14,WNW,285,0.0,1.0,95,0.00,,,0.00,meteohub,2013-03-29 06:34:00,
2013-03-28 23:39:00,46.9,45.5,30.14,WNW,285,1.0,1.0,95,0.00,,,0.00,meteohub,2013-03-29 06:39:00,
2013-03-28 23:44:00,46.9,45.5,30.14,WNW,284,0.0,1.0,95,0.00,,,0.00,meteohub,2013-03-29 06:44:00,
2013-03-28 23:49:00,46.8,45.1,30.14,WNW,285,0.0,1.0,94,0.00,,,0.00,meteohub,2013-03-29 06:49:00,
2013-03-28 23:54:00,46.8,45.1,30.14,West,276,1.0,1.0,94,0.00,,,0.00,meteohub,2013-03-29 06:54:00,